TimeEST,TemperatureF,Dew PointF,Humidity,Sea Level PressureIn,VisibilityMPH,Wind Direction,Wind SpeedMPH,Gust SpeedMPH,PrecipitationIn,Events,Conditions,WindDirDegrees,DateUTC
12:51 AM,30.0,21.0,69,29.67,3.0,North,12.7,-,0.00,Snow,Light Snow,350,2013-02-17 05:51:00
1:16 AM,28.4,23.0,80,29.63,2.5,North,16.1,-,0.01,Snow,Light Snow,360,2013-02-17 06:16:00
1:44 AM,28.4,23.0,80,29.63,1.5,NNW,13.8,21.9,0.01,Snow,Light Snow,340,2013-02-17 06:44:00
1:51 AM,27.0,23.0,85,29.63,1.5,North,13.8,21.9,0.01,Snow,Light Snow,360,2013-02-17 06:51:00
2:23 AM,26.6,21.2,80,29.62,2.0,North,19.6,26.5,0.00,Snow,Light Snow,350,2013-02-17 07:23:00
2:33 AM,26.6,23.0,86,29.60,3.0,North,15.0,-,0.00,Snow,Light Snow,350,2013-02-17 07:33:00
2:44 AM,26.6,23.0,86,29.59,2.5,North,17.3,-,0.01,Snow,Light Snow,350,2013-02-17 07:44:00
2:51 AM,26.1,21.9,84,29.58,2.0,North,20.7,28.8,0.01,Snow,Light Snow,350,2013-02-17 07:51:00
2:56 AM,26.6,21.2,80,29.58,1.8,North,18.4,28.8,0.00,Snow,Light Snow,350,2013-02-17 07:56:00
3:51 AM,24.1,19.9,84,29.56,2.0,NNW,18.4,24.2,0.01,Snow,Light Snow,340,2013-02-17 08:51:00
4:01 AM,24.8,19.4,80,29.57,1.8,NNW,16.1,25.3,0.00,Snow,Light Snow,340,2013-02-17 09:01:00
4:40 AM,23.0,19.4,86,29.56,1.0,NNW,17.3,26.5,0.00,Snow,Light Snow,330,2013-02-17 09:40:00
4:51 AM,21.9,19.0,89,29.56,1.0,NNW,12.7,26.5,0.00,Snow,Light Snow,340,2013-02-17 09:51:00
5:51 AM,21.9,17.1,82,29.52,1.0,NNW,19.6,26.5,0.01,Snow,Light Snow,330,2013-02-17 10:51:00
6:12 AM,21.2,17.6,86,29.49,0.8,NNW,19.6,29.9,0.00,Snow,Light Snow,330,2013-02-17 11:12:00
6:19 AM,21.2,17.6,86,29.50,0.8,NNW,13.8,29.9,0.00,Snow,Light Snow,330,2013-02-17 11:19:00
6:51 AM,21.0,17.1,85,29.48,0.8,NW,15.0,31.1,0.03,Snow,Light Snow,320,2013-02-17 11:51:00
7:12 AM,21.2,15.8,80,29.48,0.8,NNW,19.6,27.6,0.00,Snow,Light Snow,330,2013-02-17 12:12:00
7:42 AM,19.4,15.8,86,29.46,0.5,NNW,20.7,31.1,0.00,Fog-Snow,Light Snow,330,2013-02-17 12:42:00
7:51 AM,19.9,15.1,81,29.46,0.5,NNW,20.7,32.2,0.02,Fog-Snow,Snow,330,2013-02-17 12:51:00
8:13 AM,19.4,15.8,86,29.45,0.8,NW,19.6,32.2,0.01,Snow,Light Snow,320,2013-02-17 13:13:00
8:51 AM,19.9,15.1,81,29.43,0.8,NW,16.1,27.6,0.01,Snow,Light Snow,320,2013-02-17 13:51:00
9:27 AM,19.4,15.8,86,29.42,1.0,NW,17.3,27.6,0.01,Snow,Light Snow,310,2013-02-17 14:27:00
9:51 AM,19.9,12.9,74,29.42,1.0,NW,19.6,32.2,0.01,Snow,Light Snow,310,2013-02-17 14:51:00
10:32 AM,23.0,8.6,54,29.41,5.0,NW,20.7,29.9,0.00,Snow,Light Snow,310,2013-02-17 15:32:00
10:51 AM,23.0,7.0,50,29.42,7.0,NW,20.7,27.6,0.01,Snow,Blowing Snow,310,2013-02-17 15:51:00
11:51 AM,23.0,5.0,46,29.43,9.0,NW,24.2,34.5,N/A,Snow,Blowing Snow,310,2013-02-17 16:51:00
12:51 PM,24.1,3.9,42,29.44,9.0,WNW,25.3,34.5,N/A,,Overcast,290,2013-02-17 17:51:00
1:51 PM,25.0,3.9,41,29.46,10.0,WNW,21.9,35.7,N/A,,Overcast,300,2013-02-17 18:51:00
2:51 PM,25.0,3.9,41,29.48,10.0,WNW,20.7,36.8,N/A,,Overcast,300,2013-02-17 19:51:00
3:51 PM,26.1,1.9,35,29.50,10.0,NW,23.0,42.6,N/A,,Mostly Cloudy,310,2013-02-17 20:51:00
4:51 PM,27.0,-0.0,31,29.53,10.0,WNW,15.0,32.2,N/A,,Mostly Cloudy,300,2013-02-17 21:51:00
5:51 PM,25.0,3.0,39,29.57,10.0,WNW,16.1,27.6,N/A,,Mostly Cloudy,290,2013-02-17 22:51:00
6:51 PM,23.0,1.0,39,29.59,10.0,WNW,23.0,33.4,N/A,,Mostly Cloudy,290,2013-02-17 23:51:00
7:51 PM,21.0,1.0,42,29.62,10.0,West,20.7,32.2,N/A,,Mostly Cloudy,280,2013-02-18 00:51:00
8:51 PM,19.9,1.0,44,29.64,10.0,West,28.8,38.0,N/A,,Mostly Cloudy,280,2013-02-18 01:51:00
9:08 PM,19.4,1.4,46,29.64,8.0,WNW,26.5,41.4,N/A,,Partly Cloudy,300,2013-02-18 02:08:00
9:51 PM,19.0,1.0,46,29.68,10.0,WNW,18.4,40.3,N/A,,Mostly Cloudy,300,2013-02-18 02:51:00
10:51 PM,17.1,-0.9,45,29.71,10.0,WNW,19.6,34.5,N/A,,Mostly Cloudy,300,2013-02-18 03:51:00